Weather in Krasnyy Bor

Russia / Ulyanovsk Oblast     54°00′13″N   47°14′27″E
temp.,
°C
wind,
m/s
gust,
m/s
humid.,
%
clouds,
%
prec.,
mm/h
press.,
hPa
HPBL,
m
6 march, sat
sat601:00−11wsw379430 0.0 1012104
04:00−12wsw479518 0.0 1013122
07:00−14w349616 0.0 101450
10:00−11wnw249543 0.0 1016183
13:00−7nw227887 0.0 1016372
16:00−6sw127393 0.0 1014524
19:00−11ssw118699 0.0 101421
22:00−12wnw119298 0.0 101421
7 march, sun
sun701:00−13w129582 0.0 101321
04:00−14w229668 0.0 101320
07:00−16wsw229770 0.0 101320
10:00−11wsw469352 0.0 1013250
13:00−7sw698424 0.0 1010894
16:00−6ssw7118262 0.0 1007961
19:00−8ssw81593100 0.3 1004928
22:00−6sw91792100 1.2 10001119
8 march, mon
mon801:00−5sw91690100 0.5 997884
04:00−5wnw61085100 1.3 998506
07:00−12wsw458249 0.0 99870
10:00−8sw6117744 0.0 1000426
13:00−5wsw8118559 0.0 9991021
16:00−4wsw7118879 0.3 9991088
19:00−7wsw51289100 1.1 1001490
22:00−8w6139297 1.3 1004503
9 march, tue
tue901:00−10w5129291 0.1 1006416
04:00−12w499594 0.1 1008250
07:00−15w349696 0.1 101185
10:00−13wnw469489 0.1 1013329
13:00−11nw458899 0.0 1014576
16:00−10nw358799 0.1 1014677
19:00−15nnw3496100 0.1 101566
22:00−19nnw2310087 0.1 101720
10 march, wed
wed1001:00−21nw239983 0.0 101820
04:00−24nw2310064 0.0 101821
07:00−25nw3310088 0.0 101928
10:00−21nw479894 0.0 1021263
13:00−18nw579299 0.0 1021453
16:00−18nw588999 0.0 1021573
19:00−22nw489693 0.0 1023140
22:00−26nw339851 0.0 102524